Location: Lombard
(41.8800°N, 88.0080°W)
Time: 06:16:45
(UTC-06:00)

Transit 4A - Pass Details

Date: 03 December 2023
Orbit: 870 x 973 km, 66.8° (Epoch: 02 March)

Event Time Altitude Azimuth Distance (km) Brightness Sun altitude
Rises 03:29:49 0° 337° (NNW) 3,614 - -38.8°
Reaches altitude 10° 03:33:11 10° 354° (N) 2,646 - -38.2°
Exits shadow 03:36:28 19° 26° (NNE) 2,063 9.9 -37.6°
Maximum altitude 03:37:31 20° 39° (NE) 2,015 10.0 -37.4°
Drops below altitude 10° 03:41:46 10° 85° (E) 2,586 11.0 -36.6°
Sets 03:44:59 0° 102° (ESE) 3,505 11.9 -36.0°
